Wind_Speed
12 13 13 13 13 13 13 12 12 12 12 13 13 13 14 13 13 13 12 12 12 12 12 11 11 11 11 11 11 11 12 12 12 13 12 13 13 13 13 13 13 13 13 13
13 13 13 13 14 14 14 14 13 14 14 14 14 14 14 14 14 14 13 13 13 12 12 12 12 12 12 12 12 13 13 13 13 13 14 14 14 13 13 13 13 13 13 13
14 13 14 15 15 15 15 15 15 15 16 15 14 14 15 15 15 14 14 14 14 13 13 13 13 13 13 13 13 13 14 14 14 14 14 14 14 14 14 14 14 14 14 14
13 13 14 15 15 15 15 14 14 15 16 16 15 15 15 15 15 15 14 14 14 15 15 14 14 14 14 14 14 14 14 14 14 14 15 15 15 15 15 15 15 14 14 15
13 14 15 15 15 15 16 16 15 14 16 16 15 16 15 15 16 16 15 15 15 16 16 15 15 14 14 15 15 15 15 14 15 15 15 16 16 16 16 16 15 15 15 16
13 14 15 15 15 15 15 15 15 15 16 17 16 17 16 16 17 17 17 16 16 17 16 16 16 15 15 16 16 16 15 15 15 15 16 16 16 16 17 17 16 16 16 16
12 13 14 14 14 14 15 14 15 16 16 17 16 17 17 17 18 18 17 17 17 17 17 17 17 17 17 16 17 17 16 16 16 16 16 16 17 17 17 17 17 17 17 18
11 13 13 13 14 14 14 14 15 15 16 16 16 17 16 16 17 17 17 17 18 18 18 18 18 18 18 18 18 18 17 17 17 17 17 17 18 18 18 18 18 18 18 18
11 11 12 13 13 14 14 15 15 16 16 16 16 16 16 16 17 17 18 18 18 19 19 19 19 20 19 19 19 19 19 18 18 18 18 19 19 19 19 18 19 19 19 18
12 13 13 12 14 14 15 14 15 16 15 16 16 17 17 15 17 19 19 18 19 19 20 20 20 20 20 20 20 20 20 19 19 19 19 19 19 19 20 20 19 19 19 19
13 13 13 12 13 13 13 14 16 17 17 16 16 18 17 18 19 19 20 20 20 20 20 20 20 21 21 21 21 21 20 20 20 20 20 20 20 21 21 21 20 20 20 20
13 13 13 11 12 13 13 14 15 17 17 17 17 19 18 20 21 20 20 21 22 21 21 21 21 21 21 21 21 21 21 21 21 21 22 21 21 21 21 21 21 21 21 21
14 14 13 12 13 14 14 14 15 17 18 18 19 19 18 20 21 21 21 22 22 22 22 22 21 21 21 21 21 21 21 21 21 22 22 23 22 21 21 22 22 22 22 23
15 15 15 14 13 14 15 16 16 18 19 19 19 20 20 21 21 21 22 22 23 22 22 22 22 22 21 21 21 22 21 22 22 22 23 23 22 22 22 22 22 23 23 23
16 16 16 15 16 16 17 18 17 17 18 19 19 20 21 22 21 21 22 22 23 23 22 22 22 22 22 22 22 22 22 23 23 23 23 23 23 23 23 23 24 24 24 24
16 17 17 17 17 19 18 17 18 19 19 19 19 20 20 21 21 22 22 22 22 23 22 22 23 23 23 23 23 23 23 23 23 23 23 23 23 23 23 24 24 24 25 25
15 16 18 19 18 20 19 17 18 20 19 20 20 20 21 22 23 24 24 23 22 22 23 23 23 23 23 23 24 24 24 23 23 24 24 24 23 23 23 23 24 25 25 26
17 17 18 20 20 21 18 17 18 20 21 20 21 21 22 22 23 24 25 24 24 23 23 23 23 24 24 24 24 25 24 25 24 24 24 24 24 24 24 25 25 26 26 26
19 19 20 20 21 21 20 18 19 21 22 21 21 22 23 24 24 25 25 24 23 22 23 24 24 24 25 25 25 26 25 26 25 25 24 24 25 25 25 25 25 25 26 27
19 20 20 20 21 22 21 20 20 21 23 22 22 23 22 23 24 24 25 25 25 25 25 25 25 25 25 25 25 26 25 25 25 25 25 25 25 26 26 26 26 26 27 27
19 19 20 20 21 22 21 21 21 22 22 22 23 22 23 23 24 24 25 26 26 25 25 25 25 25 25 25 25 26 25 26 26 26 26 26 27 27 28 28 27 27 28 28
20 21 21 21 22 22 22 22 23 23 22 23 23 23 23 24 24 24 25 26 26 26 25 25 25 25 26 26 26 26 26 26 27 26 26 27 28 28 28 28 28 28 28 29
20 20 21 22 22 22 23 23 24 24 24 24 24 23 24 24 25 25 25 25 25 26 26 26 26 26 26 26 27 27 27 27 27 27 27 27 27 28 28 29 29 29 30 30
21 21 21 22 22 22 23 24 24 24 24 24 24 25 25 25 25 25 25 25 25 26 26 26 26 26 27 27 27 27 28 28 28 28 28 28 29 28 28 29 29 30 30 30
23 23 23 23 22 23 24 25 25 25 25 25 25 25 25 26 26 26 25 25 25 26 26 27 27 27 27 27 28 28 28 28 29 29 29 30 30 30 29 29 30 30 30 30
24 24 24 24 23 24 24 25 26 26 25 26 26 25 25 26 26 26 25 25 25 25 26 26 27 27 28 28 28 28 28 29 29 29 30 30 31 31 30 30 30 30 31 30
Wind_Direction
240 239 240 244 247 250 254 256 255 256 259 259 258 259 261 263 264 267 270 272 273 273 275 276 277 278 278 280 280 281 283 283 282 282 283 285 286 289 290 290 290 292 292 292
243 244 243 244 245 249 252 253 253 253 257 259 261 261 262 263 263 264 268 270 272 274 274 276 277 277 278 280 280 280 283 283 282 282 283 285 287 291 292 291 288 290 291 292
245 245 244 244 245 248 251 254 253 254 255 258 260 262 263 261 264 265 268 271 273 271 271 273 276 277 276 278 280 281 283 284 282 281 284 287 289 290 288 288 287 289 291 293
246 247 246 246 247 248 248 253 253 252 252 253 258 264 263 261 263 264 267 270 271 270 271 274 276 277 276 277 279 281 282 282 282 282 284 286 287 288 288 287 287 288 290 293
249 248 248 249 250 251 250 251 251 250 253 252 254 261 263 263 263 263 265 267 269 270 272 274 275 277 277 277 279 281 281 281 282 282 284 286 287 287 288 288 288 289 290 292
251 251 251 251 252 252 250 250 252 252 254 252 253 260 262 262 265 265 264 265 268 268 271 274 273 273 274 276 279 281 281 281 280 282 283 285 287 287 287 287 288 289 290 293
251 252 252 252 253 252 248 247 251 249 252 255 258 261 263 264 266 266 266 266 268 268 270 270 271 272 273 274 276 278 279 279 280 282 283 285 286 287 287 286 286 289 291 293
252 255 257 255 253 251 244 243 248 252 254 257 257 260 266 267 267 267 266 266 267 267 269 269 271 273 274 274 275 276 277 278 279 281 283 285 286 287 287 285 285 287 290 293
249 251 256 258 255 253 247 243 247 248 252 251 256 262 262 265 266 265 265 266 267 267 268 270 272 274 275 275 275 275 275 276 278 280 282 284 287 288 287 284 284 287 290 292
251 253 250 253 254 253 251 246 241 242 246 250 249 254 259 260 264 266 266 268 268 269 271 271 271 273 274 274 274 275 275 275 276 279 282 283 285 287 288 286 284 286 288 291
245 250 253 259 256 256 254 251 249 247 246 254 255 254 260 263 265 266 267 269 270 271 271 271 272 273 273 273 273 274 275 276 277 279 282 284 285 287 289 290 287 286 287 291
248 251 256 261 258 257 258 258 253 248 247 250 256 258 262 265 267 268 268 269 271 271 271 271 271 272 273 273 272 273 275 276 277 279 281 284 284 285 287 289 289 288 289 290
251 255 255 257 259 258 260 262 259 254 251 250 254 260 264 267 269 270 271 271 273 272 270 270 270 272 273 273 272 272 275 277 278 280 282 283 284 285 286 288 289 289 290 292
255 256 256 261 267 264 260 259 258 257 252 252 256 260 266 267 269 270 271 272 273 273 271 270 271 272 273 274 273 274 276 277 279 281 282 283 284 285 287 290 290 291 293 294
254 255 257 258 259 262 261 260 260 260 256 257 259 259 263 265 271 270 271 273 273 273 271 270 272 274 274 273 273 274 275 276 278 280 281 282 283 285 288 291 292 293 294 294
258 258 259 260 261 264 266 267 264 264 263 263 260 260 263 267 269 271 273 274 274 274 273 270 272 275 276 276 275 274 274 276 277 280 281 281 283 284 287 290 292 294 295 295
261 260 260 263 267 269 269 268 267 266 266 268 267 266 264 268 269 272 274 275 275 274 273 271 273 277 278 277 276 274 274 275 277 278 280 281 282 284 286 288 291 293 295 296
262 261 263 266 267 269 273 273 272 270 268 271 271 269 266 267 270 272 274 275 274 274 274 274 275 277 277 277 275 274 273 274 276 278 279 281 283 285 288 289 290 291 294 296
265 264 265 267 269 272 272 273 275 274 274 274 276 273 270 269 271 272 273 274 274 273 274 275 277 277 277 277 276 274 273 275 276 277 278 281 282 284 287 289 290 291 293 296
267 267 267 268 270 272 274 275 277 277 277 277 277 277 275 274 273 273 274 274 274 273 273 274 275 276 276 276 276 276 275 275 276 277 278 281 283 284 286 288 289 291 293 294
269 270 270 271 271 272 275 276 277 276 279 278 278 278 279 278 277 276 275 276 275 275 274 274 275 276 275 276 277 277 277 277 276 278 278 280 282 283 285 287 289 291 292 293
271 274 273 274 272 273 275 275 275 277 279 279 280 281 281 280 279 278 278 278 277 277 275 275 276 277 276 276 277 278 278 278 278 279 280 281 282 282 284 286 288 289 291 291
272 274 275 275 274 275 276 276 275 277 279 279 281 281 281 280 280 280 278 277 276 276 276 276 276 276 276 276 277 278 278 278 279 280 281 283 283 284 285 286 287 289 289 289
274 273 274 274 275 275 275 277 277 277 279 280 280 280 280 280 280 278 277 275 275 275 275 275 275 276 276 276 277 277 278 278 279 280 280 283 284 284 285 286 287 288 289 289
273 272 272 274 275 274 274 276 278 278 280 280 280 279 279 280 280 278 277 277 275 275 275 275 275 275 276 276 276 277 278 278 279 280 281 282 283 285 286 287 287 288 289 289
272 272 272 274 275 273 273 275 278 279 279 280 280 279 279 280 280 279 278 277 276 276 274 275 275 276 276 275 275 277 278 278 279 280 281 282 283 283 285 286 287 288 288 288
Height
5821 5823 5824 5826 5827 5829 5829 5830 5832 5833 5833 5834 5835 5836 5837 5838 5839 5840 5841 5841 5842 5843 5843 5843 5843 5843 5843 5843 5843 5843 5843 5842 5842 5842 5842 5841 5841 5840 5840 5839 5838 5838 5837 5836
5819 5820 5821 5822 5823 5825 5826 5827 5829 5830 5830 5832 5832 5833 5834 5835 5836 5837 5838 5839 5839 5840 5840 5841 5841 5841 5841 5841 5841 5841 5840 5840 5840 5840 5839 5839 5838 5838 5837 5836 5836 5835 5834 5833
5815 5817 5817 5819 5820 5822 5823 5824 5826 5827 5827 5828 5829 5831 5831 5832 5833 5834 5835 5836 5836 5837 5838 5838 5838 5838 5838 5838 5838 5838 5838 5837 5837 5837 5836 5836 5835 5834 5834 5833 5832 5832 5831 5830
5811 5813 5814 5815 5817 5818 5819 5820 5822 5823 5824 5825 5826 5827 5828 5829 5830 5831 5832 5833 5833 5834 5834 5835 5835 5835 5835 5835 5835 5835 5835 5834 5834 5834 5833 5833 5832 5831 5830 5830 5829 5828 5828 5826
5808 5809 5810 5811 5813 5814 5816 5817 5818 5819 5820 5821 5823 5823 5825 5825 5826 5828 5829 5830 5830 5831 5831 5832 5832 5832 5832 5832 5832 5832 5831 5831 5831 5830 5830 5829 5828 5828 5827 5826 5825 5825 5824 5823
5805 5805 5806 5808 5809 5811 5812 5813 5814 5815 5816 5818 5820 5820 5822 5822 5823 5824 5826 5826 5827 5828 5828 5828 5829 5829 5829 5829 5829 5828 5828 5828 5826 5826 5826 5826 5825 5824 5823 5822 5821 5821 5820 5819
5802 5802 5803 5804 5805 5807 5808 5810 5811 5811 5812 5814 5816 5817 5818 5819 5819 5820 5822 5823 5823 5824 5824 5825 5824 5825 5825 5825 5825 5825 5824 5824 5823 5823 5822 5822 5821 5820 5819 5818 5818 5817 5816 5815
5799 5799 5800 5801 5802 5803 5804 5806 5808 5809 5810 5811 5812 5812 5815 5815 5815 5816 5817 5819 5819 5820 5820 5821 5821 5821 5821 5821 5821 5821 5820 5820 5820 5819 5819 5818 5817 5816 5815 5814 5813 5813 5812 5810
5796 5797 5797 5798 5798 5800 5801 5802 5804 5805 5806 5808 5808 5809 5810 5811 5811 5812 5813 5814 5815 5815 5816 5816 5816 5817 5817 5817 5816 5816 5816 5816 5815 5815 5814 5814 5813 5812 5811 5810 5809 5808 5807 5806
5793 5794 5794 5795 5796 5796 5797 5798 5800 5801 5802 5804 5805 5806 5806 5806 5808 5808 5809 5810 5810 5811 5811 5812 5812 5812 5812 5812 5811 5811 5811 5811 5811 5810 5810 5809 5808 5807 5806 5805 5804 5803 5802 5801
5790 5791 5792 5792 5792 5793 5794 5795 5795 5797 5798 5800 5801 5803 5802 5803 5804 5804 5804 5805 5806 5806 5807 5807 5807 5807 5807 5806 5806 5806 5806 5806 5806 5806 5805 5804 5803 5802 5801 5800 5799 5798 5797 5796
5787 5788 5788 5789 5789 5790 5791 5792 5792 5794 5795 5795 5796 5800 5798 5798 5799 5799 5800 5800 5800 5801 5801 5801 5801 5801 5801 5801 5801 5801 5801 5801 5801 5800 5800 5799 5798 5797 5796 5795 5794 5793 5792 5791
5784 5785 5785 5785 5787 5787 5787 5788 5788 5789 5790 5791 5792 5795 5793 5793 5793 5794 5794 5795 5795 5795 5795 5795 5796 5796 5796 5796 5796 5796 5796 5796 5795 5795 5794 5794 5793 5792 5791 5790 5789 5788 5786 5785
5780 5781 5782 5783 5782 5783 5784 5784 5785 5785 5786 5787 5788 5788 5788 5788 5789 5789 5789 5789 5789 5789 5790 5790 5790 5790 5790 5790 5790 5790 5790 5790 5789 5789 5789 5788 5787 5787 5786 5785 5783 5782 5781 5779
5776 5778 5778 5778 5779 5779 5780 5780 5781 5781 5782 5783 5783 5783 5783 5783 5783 5784 5784 5784 5783 5784 5784 5784 5784 5784 5784 5784 5784 5784 5784 5784 5783 5783 5783 5782 5781 5781 5780 5779 5778 5776 5775 5773
5772 5773 5774 5774 5775 5775 5776 5776 5776 5777 5778 5778 5778 5779 5779 5778 5778 5778 5778 5778 5778 5778 5778 5778 5778 5778 5778 5778 5778 5778 5778 5777 5777 5777 5776 5776 5775 5774 5774 5773 5772 5770 5769 5767
5768 5769 5770 5770 5771 5771 5772 5773 5772 5773 5773 5773 5774 5775 5774 5774 5773 5773 5772 5772 5772 5772 5772 5772 5772 5772 5772 5771 5771 5771 5771 5771 5770 5770 5770 5769 5769 5768 5767 5766 5765 5764 5762 5761
5764 5765 5765 5766 5767 5766 5770 5768 5768 5768 5768 5768 5768 5768 5768 5768 5768 5767 5766 5766 5766 5766 5766 5766 5766 5766 5765 5765 5764 5764 5764 5764 5764 5763 5763 5762 5762 5761 5761 5759 5758 5757 5755 5753
5760 5760 5760 5761 5761 5761 5763 5763 5763 5763 5763 5763 5763 5763 5762 5762 5762 5761 5761 5760 5760 5760 5760 5760 5759 5759 5759 5758 5757 5757 5757 5757 5757 5757 5756 5756 5755 5754 5754 5752 5751 5750 5748 5746
5755 5755 5756 5756 5756 5756 5758 5758 5758 5758 5757 5758 5757 5757 5757 5756 5756 5756 5755 5754 5754 5754 5753 5753 5752 5752 5752 5751 5750 5750 5750 5750 5750 5749 5749 5749 5748 5747 5746 5745 5744 5742 5741 5739
5750 5750 5750 5751 5750 5751 5753 5752 5753 5754 5753 5752 5751 5751 5750 5750 5750 5750 5748 5748 5747 5747 5747 5746 5746 5745 5745 5744 5744 5743 5743 5743 5742 5742 5742 5741 5740 5739 5739 5737 5736 5735 5733 5732
5745 5745 5746 5746 5746 5748 5747 5747 5747 5747 5746 5745 5745 5745 5744 5744 5743 5743 5742 5741 5740 5740 5740 5739 5739 5738 5737 5737 5736 5736 5736 5735 5735 5734 5734 5733 5733 5732 5731 5729 5728 5727 5725 5724
5740 5741 5741 5742 5743 5742 5741 5740 5741 5740 5740 5739 5739 5738 5738 5737 5737 5736 5735 5734 5734 5733 5733 5732 5732 5731 5730 5730 5729 5729 5728 5728 5727 5727 5726 5725 5724 5723 5722 5721 5720 5718 5717 5715
5735 5735 5735 5735 5736 5736 5735 5734 5734 5734 5733 5732 5732 5732 5731 5730 5730 5729 5728 5727 5727 5726 5725 5725 5724 5724 5723 5722 5722 5721 5721 5720 5720 5719 5718 5717 5716 5715 5714 5712 5711 5710 5708 5707
5728 5728 5728 5728 5729 5729 5729 5728 5727 5727 5726 5726 5725 5725 5724 5723 5722 5722 5721 5720 5719 5718 5718 5717 5717 5716 5715 5714 5714 5713 5713 5712 5711 5711 5710 5709 5708 5707 5705 5704 5702 5701 5700 5698
5722 5722 5722 5722 5722 5722 5722 5721 5721 5720 5720 5719 5718 5718 5717 5716 5715 5714 5714 5713 5712 5711 5710 5710 5709 5708 5707 5706 5706 5705 5705 5704 5703 5702 5701 5700 5699 5698 5697 5695 5694 5692 5690 5689